Hourly Data Report for November 23, 2005

TORONTO CITY
ONTARIO

43°40'00.000" N
79°24'00.000" W
112.50 m
6158355
71508
XTO

Download Data

Hourly Data (November 2005)
Hourly Data Report for November 23, 2005
TIME
LST
Temp Definition
°C
Dew Point Definition
°C
Rel Hum Definition
%
Precip. Amount Definition
mm

Wind Dir Definition
10's deg

Wind Spd Definition
km/h
Visibility Definition
km
Stn Press Definition
kPa
Hmdx Definition


Wind Chill Definition


Weather Definition


00:00 -5.6 -11.8 62   LegendMM LegendMM   98.97     LegendNANA
01:00 -5.9 -11.7 64   LegendMM LegendMM   99.01     LegendNANA
02:00 -5.9 -11.7 64   LegendMM LegendMM   99.05     LegendNANA
03:00 -6.1 -11.9 63   LegendMM LegendMM   99.05     LegendNANA
04:00 -5.7 -10.1 71   LegendMM LegendMM   99.02     LegendNANA
05:00 -6.4 -9.9 76   LegendMM LegendMM   99.00     LegendNANA
06:00 -6.7 -9.7 79   LegendMM LegendMM   99.00     LegendNANA
07:00 -6.7 -9.8 79   LegendMM LegendMM   98.98     LegendNANA
08:00 -6.7 -10.5 74   LegendMM LegendMM   98.99     LegendNANA
09:00 -5.4 -11.0 65   LegendMM LegendMM   98.99     LegendNANA
10:00 -3.9 -10.9 58   LegendMM LegendMM   98.93     LegendNANA
11:00 -2.6 -10.2 56   LegendMM LegendMM   98.85     LegendNANA
12:00 -2.0 -9.9 55   LegendMM LegendMM   98.75     LegendNANA
13:00 -1.6 -10.1 52   LegendMM LegendMM   98.63     LegendNANA
14:00 -2.2 -10.0 55   LegendMM LegendMM   98.50     LegendNANA
15:00 -2.0 -8.8 60   LegendMM LegendMM   98.42     LegendNANA
16:00 -1.9 -7.7 64   LegendMM LegendMM   98.35     LegendNANA
17:00 -1.2 -7.0 65   LegendMM LegendMM   98.25     LegendNANA
18:00 -0.5 -5.4 69   LegendMM LegendMM   98.17     LegendNANA
19:00 0.1 -4.3 72   LegendMM LegendMM   98.07     LegendNANA
20:00 0.1 -3.9 74   LegendMM LegendMM   97.95     LegendNANA
21:00 0.2 -4.8 69   LegendMM LegendMM   97.83     LegendNANA
22:00 -0.5 -2.1 89   LegendMM LegendMM   97.68     LegendNANA
23:00 -0.4 -1.5 92   LegendMM LegendMM   97.53     LegendNANA

Notes on Data Quality.

Legend

  • E = Estimated
  • M = Missing
  • NA = Not Available*
  • [empty] = Indicates an unobserved value
Date modified: